[[{"header":{"parameterUnit":"m.s-1","parameterCategory":1,"la1":30.2991,"la2":30.254,"lo1":-89.0895,"lo2":-89.0444,"dy":0.0017,"dx":0.0017,"nx":28,"ny":28,"refTime":"2026-02-17T09:00:00:Z","depth":0,"parameterNumber":2,"parameterNumberName":"U-component_of_WINDS"},"data":[0,0,0,0,0,0,0,0,0,0,0,0,0,0,0,0,0,0,0,0,0,0,0,0,0,0,0,0,0,0,0,0,0,0,0,0,0,0,0,0,0,0,0,0,0,0,0,0,0,0,0,0,0,0,0,0,0,0,-3.7613,-3.7614,0,-3.7656,-3.7657,-3.7657,-3.7555,-3.7552,-3.7549,-3.7546,-3.759,-3.7594,-3.7598,0,0,0,0,0,0,0,0,0,0,0,0,0,-3.7442,-3.7446,-3.7613,-3.7614,-3.7614,-3.7656,-3.7657,-3.7657,-3.7556,-3.7552,-3.7548,-3.7544,-3.7588,-3.7593,-3.7598,0,0,0,0,0,0,0,0,0,0,0,0,0,-3.7504,-3.7447,-3.7613,-3.7569,-3.7565,-3.7656,-3.7657,-3.7658,-3.7557,-3.7552,-3.7547,-3.7542,-3.7587,-3.7593,-3.7599,-3.7735,0,0,-3.7618,-3.7621,0,0,0,0,0,0,0,0,-3.7501,-3.751,-3.7575,-3.7572,-3.7568,-3.7595,-3.7613,-3.7684,-3.7558,-3.756,-3.7546,-3.754,-3.7596,-3.7601,-3.762,-3.7738,-3.7739,-3.7619,-3.7623,-3.7626,-3.7627,0,0,0,0,0,0,0,-3.7497,-3.7508,-3.763,-3.7576,-3.7572,-3.7546,-3.755,-3.7626,-3.7605,-3.7559,-3.7552,-3.7558,-3.7593,-3.7614,-3.762,-3.774,-3.7619,-3.7624,-3.7628,-3.7631,-3.7972,-3.7977,0,0,0,0,0,0,-3.7498,-3.7505,-3.7629,-3.7631,-3.7522,-3.7553,-3.7557,-3.7592,-3.7603,-3.7601,-3.7563,-3.7554,-3.7605,-3.7613,-3.7621,-3.7782,-3.7625,-3.7631,-3.7635,-3.7967,-3.7973,-3.7979,0,0,0,0,0,0,-3.7495,-3.751,-3.7627,-3.7566,-3.7579,-3.7561,-3.7601,-3.7595,-3.7616,-3.7606,-3.7602,-3.7588,-3.7602,-3.7612,-3.7708,-3.7782,-3.7634,-3.764,-3.796,-3.7969,-3.7976,-3.8104,0,0,0,0,0,0,-3.749,-3.7509,-3.7561,-3.7568,-3.7583,-3.7714,-3.7605,-3.7599,-3.7627,-3.7616,-3.7629,-3.7626,-3.7599,-3.7699,-3.7714,-3.7788,-3.7645,-3.7954,-3.7964,-3.7973,-3.8093,-3.8115,-3.8135,0,0,0,0,0,-3.7484,-3.7596,-3.7564,-3.758,-3.7647,-3.7718,-3.7726,-3.7693,-3.7633,-3.7685,-3.7679,-3.7626,-3.7771,-3.771,-3.7726,-3.7803,-3.7949,-3.7961,-3.7973,-3.8084,-3.8111,-3.8134,0,0,0,0,0,0,-3.7598,-3.7596,-3.7561,-3.7678,-3.7699,-3.7701,-3.7765,-3.7723,-3.7761,-3.7749,-3.7706,-3.7709,-3.7813,-3.7817,-3.7749,-3.7935,-3.785,-3.7866,-3.7929,-3.7955,-3.7975,-3.7972,-3.765,0,0,0,0,0,-3.7636,-3.7694,-3.7689,-3.7792,-3.7805,-3.7784,-3.7813,-3.7785,-3.7805,-3.7814,-3.7814,-3.7836,-3.7886,-3.792,-3.7966,-3.8093,-3.8094,-3.8154,-3.8174,-3.8191,-3.8206,-3.8273,-3.8299,-3.8018,-3.8018,-3.8017,0,0,-3.7716,-3.7722,-3.7762,-3.7815,-3.7828,-3.7889,-3.7792,-3.786,-3.7905,-3.7824,-3.7915,-3.7916,-3.7937,-3.8049,-3.8098,-3.8055,-3.8284,-3.8206,-3.822,-3.8225,-3.8288,-3.8315,-3.8338,-3.8026,-3.8024,-3.8023,0,0,-3.7894,-3.7904,-3.7992,-3.8007,-3.8028,-3.8013,-3.8034,-3.8042,-3.804,-3.813,-3.8071,-3.8123,-3.8211,-3.8228,-3.8249,-3.8433,-3.8386,-3.8449,-3.8557,-3.8623,-3.8646,-3.8665,-3.8731,-3.8755,-3.8463,-3.8463,-3.8464,0,-3.7991,-3.808,-3.8042,-3.8115,-3.814,-3.807,-3.8158,-3.8174,-3.821,-3.8229,-3.818,-3.8289,-3.8298,-3.8413,-3.8458,-3.8477,-3.85,-3.8448,-3.8645,-3.8665,-3.8682,-3.8745,-3.877,-3.8471,-3.847,-3.8469,-3.8469,0,-3.8199,-3.8262,-3.833,-3.8366,-3.8399,-3.8479,-3.8453,-3.849,-3.846,-3.845,-3.8543,-3.8551,-3.8598,-3.8622,-3.8593,-3.8734,-3.8707,-3.8653,-3.8566,-3.8717,-3.8775,-3.8799,-3.8482,-3.8479,-3.8477,-3.8475,0,0,-3.845,-3.8463,-3.8489,-3.8504,-3.8522,-3.857,-3.8647,-3.8692,-3.8726,-3.8752,-3.8816,-3.8891,-3.8841,-3.8865,-3.8837,-3.8895,-3.9041,-3.8833,-3.8833,-3.8872,-3.9196,-3.9237,-3.9266,-3.9009,-3.9013,-3.9017,-3.9195,0,-3.8625,-3.8758,-3.8725,-3.8857,-3.8914,-3.8848,-3.8915,-3.8933,-3.8926,-3.8974,-3.8965,-3.902,-3.895,-3.8963,-3.9018,-3.9012,-3.9105,-3.8998,-3.9068,-3.9071,-3.9066,-3.9296,-3.934,-3.9507,-3.9217,-3.9221,-3.9224,0,-3.8848,-3.8884,-3.9021,-3.903,-3.9052,-3.9113,-3.9152,-3.9199,-3.9218,-3.9208,-3.9235,-3.9195,-3.9271,-3.9183,-3.9287,-3.9215,-3.9241,-3.9243,-3.9248,-3.9254,-3.9157,-3.9309,-3.956,-3.9585,-3.9259,-3.9256,-3.9253,0,-3.9019,-3.91,-3.9193,-3.9208,-3.922,-3.9264,-3.9271,-3.9286,-3.9315,-3.9349,-3.9368,-3.941,-3.9434,-3.9467,-3.944,-3.9379,-3.9549,-3.9459,-3.9543,-3.9544,-3.9582,-3.9581,-3.9842,-3.9599,-3.9598,-3.9598,-3.9597,0,-3.9219,-3.9305,-3.9269,-3.9326,-3.9421,-3.9383,-3.9478,-3.9477,-3.9491,-3.9546,-3.9491,-3.9545,-3.9505,-3.9555,-3.9534,-3.9624,-3.9634,-3.9629,-3.9623,-3.9635,-3.9635,-3.9652,-3.964,-3.9605,-3.9603,-3.9602,-3.9601,0,-3.9425,-3.9404,-3.9501,-3.9504,-3.9507,-3.9577,-3.958,-3.9633,-3.9621,-3.9693,-3.9707,-3.9689,-3.9745,-3.9721,-3.978,-3.9766,-3.9881,-3.9859,-3.9875,-3.9869,-3.9955,-3.9948,-4.0237,-4.0273,-4.0006,-4.0009,-4.0011,0,-3.9555,-3.962,-3.963,-3.9664,-3.9675,-3.9729,-3.9759,-3.9724,-3.9757,-3.9783,-3.9833,-3.9884,-3.9924,-4.0016,-4.0008,-4.0053,-4.0032,-4.013,-4.0038,-4.0048,-4.0034,-4.0031,-4.0037,-4.0149,-4.0152,-4.0154,-4.0156,0,-3.9787,-3.9773,-3.9819,-3.9861,-3.9898,-3.9929,-3.9955,-3.9986,-3.9951,-3.9991,-4.0048,-4.0078,-4.0138,-4.019,-4.0229,-4.0236,-4.0191,-4.0185,-4.0207,-4.022,-4.0227,-4.0225,-3.9926,-4.0179,-4.0177,-4.0175,-4.0174,-4.0173,-3.9959,-4.0014,-4.003,-4.0082,-4.0098,-4.0124,-4.0174,-4.0169,-4.0216,-4.0262,-4.0238,-4.0304,-4.0321,-4.0369,-4.0382,-4.0433,-4.0395,-4.0426,-4.0434,-4.0443,-4.0455,-4.0219,-4.044,-4.0439,-4.0439,-4.0438,-4.0438,0,-4.0189,-4.0196,-4.0245,-4.0283,-4.0324,-4.0278,-4.0305,-4.0342,-4.0401,-4.0421,-4.046,-4.0525,-4.0575,-4.0571,-4.0617,-4.0658,-4.0639,-4.0672,-4.0668,-4.0671,-4.0486,-4.0463,-4.0687,-4.0687,-4.0686,-4.0686,-4.0686,-4.0686,-4.0314,-4.0404,-4.0393,-4.0491,-4.0497,-4.0561,-4.0581,-4.0604,-4.062,-4.0695,-4.0736,-4.0733,-4.0743,-4.0789,-4.0832,-4.083,-4.0849,-4.089,-4.088,-4.0708,-4.0684,-4.066,-4.0638,-4.0895,-4.0895,-4.106,-4.1062,-4.1063]},{"header":{"parameterUnit":"m.s-1","parameterCategory":1,"la1":30.2991,"la2":30.254,"lo1":-89.0895,"lo2":-89.0444,"dy":0.0017,"dx":0.0017,"nx":28,"ny":28,"refTime":"2026-02-17T09:00:00:Z","depth":0,"parameterNumber":3,"parameterNumberName":"V-component_of_WINDS"},"data":[0,0,0,0,0,0,0,0,0,0,0,0,0,0,0,0,0,0,0,0,0,0,0,0,0,0,0,0,0,0,0,0,0,0,0,0,0,0,0,0,0,0,0,0,0,0,0,0,0,0,0,0,0,0,0,0,0,0,-1.2136,-1.2136,0,-1.219,-1.219,-1.2191,-1.217,-1.2169,-1.2168,-1.2167,-1.222,-1.2222,-1.2225,0,0,0,0,0,0,0,0,0,0,0,0,0,-1.2011,-1.2013,-1.2136,-1.2136,-1.2137,-1.219,-1.2191,-1.2191,-1.2171,-1.2169,-1.2168,-1.2166,-1.2219,-1.2222,-1.2225,0,0,0,0,0,0,0,0,0,0,0,0,0,-1.2065,-1.2014,-1.2135,-1.2133,-1.2133,-1.219,-1.2191,-1.2191,-1.2171,-1.2169,-1.2167,-1.2165,-1.2218,-1.2222,-1.2225,-1.2286,0,0,-1.2237,-1.2239,0,0,0,0,0,0,0,0,-1.2062,-1.207,-1.2133,-1.2133,-1.2134,-1.2172,-1.2166,-1.2223,-1.2171,-1.2157,-1.2167,-1.2165,-1.2205,-1.221,-1.2224,-1.2289,-1.2291,-1.2238,-1.224,-1.2242,-1.2243,0,0,0,0,0,0,0,-1.2058,-1.2067,-1.2157,-1.2134,-1.2134,-1.2128,-1.2134,-1.2177,-1.219,-1.2158,-1.2156,-1.2163,-1.2205,-1.222,-1.2225,-1.2292,-1.2237,-1.2241,-1.2243,-1.2245,-1.2409,-1.2411,0,0,0,0,0,0,-1.2055,-1.2064,-1.2155,-1.2159,-1.2093,-1.2132,-1.2138,-1.2161,-1.219,-1.2193,-1.2165,-1.2162,-1.2215,-1.2221,-1.2227,-1.23,-1.2242,-1.2245,-1.2247,-1.2407,-1.241,-1.2412,0,0,0,0,0,0,-1.2052,-1.2063,-1.2153,-1.2111,-1.2122,-1.2136,-1.2162,-1.2163,-1.2179,-1.2195,-1.2197,-1.2178,-1.2213,-1.2221,-1.2272,-1.2302,-1.2247,-1.225,-1.2405,-1.2408,-1.2411,-1.2448,0,0,0,0,0,0,-1.2049,-1.2062,-1.2086,-1.2112,-1.2124,-1.2198,-1.2164,-1.2166,-1.2186,-1.2183,-1.2209,-1.2211,-1.2213,-1.2266,-1.2276,-1.2306,-1.2253,-1.2402,-1.2406,-1.241,-1.2444,-1.2452,-1.2458,0,0,0,0,0,-1.2044,-1.2094,-1.2088,-1.2099,-1.2155,-1.22,-1.2207,-1.2209,-1.2188,-1.2212,-1.2223,-1.221,-1.2297,-1.2272,-1.2282,-1.2314,-1.24,-1.2405,-1.2409,-1.2441,-1.245,-1.2458,0,0,0,0,0,0,-1.2071,-1.2098,-1.2091,-1.2151,-1.2173,-1.2197,-1.2227,-1.2219,-1.2247,-1.2243,-1.2243,-1.2249,-1.2301,-1.2312,-1.2284,-1.2374,-1.2345,-1.2352,-1.2365,-1.2375,-1.2382,-1.2378,-1.2257,0,0,0,0,0,-1.2084,-1.212,-1.214,-1.2191,-1.2203,-1.2213,-1.2232,-1.2232,-1.2255,-1.2264,-1.2278,-1.2301,-1.2333,-1.2354,-1.2385,-1.2445,-1.245,-1.2472,-1.2479,-1.2485,-1.2491,-1.2524,-1.2534,-1.2427,-1.2427,-1.2427,0,0,-1.2111,-1.213,-1.2152,-1.2197,-1.2214,-1.225,-1.2221,-1.226,-1.2286,-1.227,-1.2319,-1.233,-1.2354,-1.241,-1.2435,-1.2421,-1.2522,-1.2491,-1.2495,-1.2499,-1.2529,-1.254,-1.2549,-1.243,-1.2429,-1.2429,0,0,-1.2179,-1.2197,-1.2241,-1.226,-1.2287,-1.2293,-1.2304,-1.2328,-1.2335,-1.2384,-1.2372,-1.2403,-1.2458,-1.2476,-1.2493,-1.2567,-1.2556,-1.2576,-1.2614,-1.2646,-1.2654,-1.2662,-1.2688,-1.2698,-1.2582,-1.2582,-1.2582,0,-1.2209,-1.2264,-1.2265,-1.2305,-1.2325,-1.2312,-1.2356,-1.2373,-1.2409,-1.2422,-1.2406,-1.2475,-1.2491,-1.255,-1.2568,-1.2582,-1.2594,-1.2574,-1.2653,-1.2661,-1.2668,-1.2693,-1.2703,-1.2585,-1.2584,-1.2584,-1.2584,0,-1.2299,-1.2337,-1.2369,-1.2405,-1.2428,-1.247,-1.2476,-1.2499,-1.2496,-1.2504,-1.2553,-1.2572,-1.2606,-1.2619,-1.2616,-1.2679,-1.2669,-1.2653,-1.2624,-1.268,-1.2704,-1.2714,-1.2588,-1.2587,-1.2587,-1.2586,0,0,-1.2387,-1.2422,-1.2434,-1.245,-1.2478,-1.2507,-1.2548,-1.2582,-1.2602,-1.2626,-1.266,-1.2707,-1.2692,-1.2711,-1.2709,-1.2737,-1.2794,-1.2718,-1.2718,-1.2732,-1.2864,-1.2876,-1.2888,-1.2787,-1.2789,-1.279,-1.2862,0,-1.2457,-1.253,-1.2532,-1.2599,-1.2633,-1.2621,-1.2656,-1.2677,-1.2685,-1.2715,-1.2723,-1.2756,-1.2734,-1.2745,-1.2772,-1.2782,-1.2821,-1.2776,-1.2818,-1.282,-1.2814,-1.29,-1.2913,-1.298,-1.2871,-1.2873,-1.2874,0,-1.2549,-1.2578,-1.2648,-1.2672,-1.2686,-1.2718,-1.2749,-1.2778,-1.2801,-1.2804,-1.2825,-1.2819,-1.286,-1.2829,-1.2885,-1.2854,-1.2871,-1.2878,-1.2881,-1.2885,-1.2851,-1.2907,-1.3001,-1.3012,-1.2888,-1.2887,-1.2886,0,-1.2607,-1.2662,-1.2711,-1.2725,-1.2754,-1.2777,-1.2789,-1.281,-1.283,-1.2857,-1.287,-1.29,-1.2917,-1.2941,-1.2943,-1.292,-1.2999,-1.2968,-1.3003,-1.3003,-1.3021,-1.302,-1.312,-1.3031,-1.303,-1.303,-1.303,0,-1.2686,-1.2729,-1.2738,-1.2768,-1.2816,-1.2817,-1.2864,-1.2875,-1.2893,-1.2925,-1.2915,-1.2945,-1.2946,-1.2976,-1.2977,-1.3023,-1.3031,-1.3034,-1.3035,-1.3036,-1.3036,-1.3048,-1.3043,-1.3033,-1.3032,-1.3032,-1.3031,0,-1.2758,-1.2765,-1.2819,-1.2841,-1.2848,-1.2882,-1.2901,-1.293,-1.2936,-1.2976,-1.2985,-1.2996,-1.303,-1.3035,-1.3075,-1.3076,-1.3131,-1.3126,-1.3124,-1.3123,-1.3158,-1.3155,-1.327,-1.3285,-1.3185,-1.3186,-1.3187,0,-1.2808,-1.2842,-1.2868,-1.2889,-1.2903,-1.2937,-1.2958,-1.2959,-1.2981,-1.3009,-1.3034,-1.3068,-1.3095,-1.3151,-1.3161,-1.3192,-1.3187,-1.3225,-1.3192,-1.3192,-1.3189,-1.3187,-1.319,-1.3232,-1.3233,-1.3234,-1.3235,0,-1.2897,-1.2899,-1.293,-1.2962,-1.2987,-1.3012,-1.3036,-1.3053,-1.3057,-1.3082,-1.3118,-1.3139,-1.318,-1.3214,-1.3244,-1.3255,-1.3246,-1.3245,-1.3255,-1.3257,-1.3255,-1.3257,-1.3142,-1.3243,-1.3242,-1.3241,-1.3241,-1.3241,-1.296,-1.299,-1.3013,-1.3047,-1.3065,-1.3087,-1.3115,-1.3126,-1.3156,-1.319,-1.3189,-1.3228,-1.3249,-1.3289,-1.3302,-1.3332,-1.332,-1.3334,-1.3338,-1.3341,-1.3345,-1.3249,-1.3338,-1.3338,-1.3337,-1.3337,-1.3337,0,-1.3049,-1.3063,-1.3095,-1.3129,-1.3156,-1.3145,-1.317,-1.3193,-1.3228,-1.3249,-1.3276,-1.3317,-1.3349,-1.3362,-1.3393,-1.3415,-1.3411,-1.3423,-1.3422,-1.3425,-1.3354,-1.3343,-1.3426,-1.3426,-1.3425,-1.3425,-1.3425,-1.3425,-1.3098,-1.3147,-1.3152,-1.3209,-1.3222,-1.3262,-1.3277,-1.3297,-1.3314,-1.336,-1.3388,-1.3396,-1.3413,-1.3446,-1.3475,-1.3477,-1.3489,-1.3504,-1.3504,-1.3439,-1.343,-1.3421,-1.3411,-1.3506,-1.3506,-1.3572,-1.3573,-1.3574]}]]